{"data":{"norad_id":49147,"intl_designator":"2021-082T","name":"STARLINK-3071","alt_names":[],"object_type":"PAYLOAD","status":"ACTIVE","operator":null,"country":"US","launch_date":"2021-09-14","launch_site_code":"AFWTR","launch_vehicle":null,"mission":null,"orbit_class":"UNKNOWN","rcs_meters":null,"size_class":null,"mass_kg":null,"dimensions":null,"purposes":["comms"],"wikipedia_slug":null,"has_3d_model":false,"image_url":null,"decayed_at":null,"tle_current":{"epoch":"2026-09-20T01:38:35.401920Z","epoch_age_seconds":78532,"freshness":"FRESH","line1":"1 49147U 21082T   26263.06846530  .00000368  00000+0  38610-4 0  9997","line2":"2 49147  69.9984 124.3598 0002685 274.8536  85.2317 14.98325008276089","mean_motion":14.98325008,"eccentricity":0.0002685,"inclination_deg":69.9984,"raan_deg":124.3598,"arg_perigee_deg":274.8536,"mean_anomaly_deg":85.2317,"bstar":3.861e-5,"rev_number":27608,"period_min":96.107319327343,"perigee_km":570.20519739933,"apogee_km":573.93745927164,"semimajor_km":6950.2083283355,"source":"CELESTRAK","updated_at":"2026-09-20T09:00:39.249297Z"}}}